User: anonymous   Login
Location: Nag� el Ma?a??a
(24.0667°N, 32.8833°E)
Time: 06:22:57
(UTC+00:00)
Language:

SWIFT - Orbit

View from above orbital plane
View from above orbital plane
View from above satellite
View from above satellite

Ground track
Ground track

The orbit data is extracted from the following two-line orbital elements,

1 28485U 04047A   21341.68683817  .00001315  00000-0  58470-4 0  9998
2 28485  20.5556 215.2985 0010945  29.5785 330.5267 15.05328133934686
Epoch (UTC): 07 December 2021 16:29:02
Eccentricity: 0.0010945
inclination: 20.5556°
perigee height: 543 km
apogee height: 558 km
right ascension of ascending node: 215.2985°
argument of perigee: 29.5785°
revolutions per day: 15.05328133
mean anomaly at epoch: 330.5267°
orbit number at epoch: 93468

The dashed part of the orbit path shows where the satellite is in the earth's shadow,  

DLR